Location: Errabaliem
(16.8108°N, 80.4255°E)
Time: 05:32:09
(UTC+00:00)

Cosmos 1455 Rocket - Pass Details

Date: 05 August 2024
Orbit: 600 x 626 km, 82.5° (Epoch: 10 September)

Event Time Altitude Azimuth Distance (km) Brightness Sun altitude
Rises 13:44:01 0° 344° (NNW) 2,841 7.0 -8.8°
Reaches altitude 10° 13:46:19 10° 337° (NNW) 1,937 6.3 -9.3°
Maximum altitude 13:50:20 40° 268° (W) 880 4.5 -10.2°
Drops below altitude 10° 13:54:21 10° 198° (SSW) 1,934 5.6 -11.1°
Sets 13:56:39 0° 190° (S) 2,837 6.3 -11.6°
